User: anonymous   Login
Location: Caltech
(34.1382°N, 118.1253°W)
Time: 00:25:21
(UTC-07:00)
Language:

COSMOS 2428 - Orbit

View from above orbital plane
View from above orbital plane
View from above satellite
View from above satellite

Ground track
Ground track

The orbit data is extracted from the following two-line orbital elements,

1 31792U 07029A   16181.15550204  .00000137  00000-0  10000-3 0  9994
2 31792  70.9381  73.1404 0007495  81.7961  70.2819 14.12363950464227
Epoch (UTC): 29 June 2016 03:43:55
Eccentricity: 0.0007495
inclination: 70.9381°
perigee height: 846 km
apogee height: 857 km
right ascension of ascending node: 73.1404°
argument of perigee: 81.7961°
revolutions per day: 14.12363950
mean anomaly at epoch: 70.2819°
orbit number at epoch: 46422

The dashed part of the orbit path shows where the satellite is in the earth's shadow,  

DLR